PSLV R/B (47257 NORAD) Tracking and Keplerian Element Data
This shows tracking and keplerian element data for the satellite.
Feedback or suggestion? Click here.
Element | Value |
Catalog | 47257 |
Name | PSLV R/B |
Epoch Orbit | 117 |
Epoch Day | 15.98028647 |
Epoch Year | 2021 |
RAAN | 165.9688 |
Inclination | 17.8244 |
Eccentricity | 0.6079573 |
Argument of Perigee | 221.2765 |
Mean Anonmoly | 71.7525 |
Mean Motion | 3.93360531 |
Decay Rate | 1.548E-05 |
L1 | 1 47257U 20099B 21015.98028647 .00001548 00000-0 26510-3 0 9993 |
L2 | 2 47257 17.8244 165.9688 6079573 221.2765 71.7525 3.93360531 1177 |
Live tracking and technical data element details for PSLV R/B (NORAD 47257). PSLV R/B can be tracked NOW for your location showing map with azimuth and elevation plus other details from your city location.
Track the satellite on the map from your city or location and see movement details for azimuth, elevation, latitude, longitude, range, height, and movement on the map or in text.
IsCatalogInMostPopularTable: catalog: 47257, numindb: 13
Update: records affected: 1
GetName: 47257 PSLV R/B
Hit Count: updated at: Sat, 23 Jan 2021 18:53:59 GMT